KG7MRB Weather Reports


time (UTC)temp
F
wind
direction
speed
knots
gust
knots
rain 1hr
in
rain 24hr
in
rain mn
in
humidity
%
barometer
mb
20260503180109 75 12 1.7 6.1 0.00 0.00 0.00 41 1032.2
20260503175605 74 5 2.6 6.1 0.00 0.00 0.00 40 1032.5
20260503175103 75 20 1.7 6.1 0.00 0.00 0.00 41 1032.5
20260503174559 75 349 2.6 2.6 0.00 0.00 0.00 43 1032.6
20260503174056 74 40 1.7 2.6 0.00 0.00 0.00 42 1032.7
20260503173551 72 13 3.5 6.1 0.00 0.00 0.00 43 1032.6
20260503173048 72 26 3.5 7.0 0.00 0.00 0.00 44 1032.5
20260503172545 72 25 1.7 2.6 0.00 0.00 0.00 45 1032.6
20260503172042 71 344 2.6 3.5 0.00 0.00 0.00 48 1032.7
20260503171538 72 40 2.6 3.5 0.00 0.00 0.00 44 1032.6
20260503171036 71 2 4.3 6.1 0.00 0.00 0.00 46 1032.6
20260503170532 71 80 0.0 1.7 0.00 0.00 0.00 49 1032.6
20260503150924 46 8 0.0 0.0 0.00 0.00 0.00 98 1033.8
20260503150421 45 8 0.0 0.0 0.00 0.00 0.00 99 1034.0
20260503131314 43 72 0.0 0.0 0.00 0.00 0.00 99 1033.7
20260503130812 43 72 0.0 0.0 0.00 0.00 0.00 99 1033.4
20260503130309 43 72 0.0 0.0 0.00 0.00 0.00 99 1033.7
20260503110703 46 42 0.0 0.0 0.00 0.00 0.00 99 1033.8
20260503110200 45 42 0.0 0.0 0.00 0.00 0.00 99 1033.8
20260503100126 47 25 0.0 0.0 0.00 0.00 0.00 98 1033.7
20260503081516 50 96 0.0 0.0 0.00 0.00 0.00 95 1033.8
20260503081013 50 41 0.0 0.0 0.00 0.00 0.00 95 1033.7
20260503080509 51 50 0.0 0.0 0.00 0.00 0.00 94 1034.0
20260503072443 52 64 0.0 0.0 0.00 0.00 0.00 93 1033.4
20260503071940 52 67 0.0 0.0 0.00 0.00 0.00 93 1033.5
20260503071437 52 67 0.0 0.0 0.00 0.00 0.00 92 1033.4
20260503070933 53 67 0.0 0.0 0.00 0.00 0.00 92 1033.4
20260503070430 53 272 0.9 1.7 0.00 0.00 0.00 92 1033.1
20260503054844 55 71 0.0 0.0 0.00 0.00 0.00 89 1033.2
20260503054339 55 95 0.0 0.0 0.00 0.00 0.00 88 1033.3
20260503053837 55 95 0.0 0.0 0.00 0.00 0.00 88 1033.2
20260503053336 55 149 0.0 0.0 0.00 0.00 0.00 88 1033.1
20260503052831 55 149 0.0 0.0 0.00 0.00 0.00 87 1033.1
20260503052329 56 149 0.0 0.0 0.00 0.00 0.00 86 1033.2
20260503051825 56 149 0.0 0.0 0.00 0.00 0.00 86 1033.2
20260503051321 56 149 0.0 0.0 0.00 0.00 0.00 86 1033.2
20260503050818 56 149 0.0 0.0 0.00 0.00 0.00 86 1033.0
20260503050314 57 149 0.0 0.0 0.00 0.00 0.00 85 1033.0
20260503045812 57 149 0.0 0.0 0.00 0.00 0.00 85 1033.2
20260503045310 57 149 0.0 0.0 0.00 0.00 0.00 84 1033.0
20260503044806 57 149 0.0 0.0 0.00 0.00 0.00 82 1033.1
20260503044303 58 149 0.0 0.0 0.00 0.00 0.00 82 1032.9
20260503043800 58 149 0.0 0.0 0.00 0.00 0.00 81 1033.1
20260503043257 58 149 0.0 0.0 0.00 0.00 0.00 81 1032.9
20260503042753 59 149 0.0 0.0 0.00 0.00 0.00 81 1032.9
20260503042250 59 149 0.0 0.0 0.00 0.00 0.00 81 1032.8
20260503041745 59 149 0.0 0.0 0.00 0.00 0.00 78 1033.0
20260503041244 60 149 0.0 0.0 0.00 0.00 0.00 78 1033.0
20260503040741 60 149 0.0 0.0 0.00 0.00 0.00 78 1033.0
20260503040239 61 149 0.0 0.0 0.00 0.00 0.00 76 1032.7
20260503035735 61 149 0.0 0.0 0.00 0.00 0.00 75 1032.8
20260503035233 61 149 0.0 0.0 0.00 0.00 0.00 74 1032.6
20260503034730 62 149 0.0 0.0 0.00 0.00 0.00 73 1032.6
20260503034227 62 149 0.0 0.0 0.00 0.00 0.00 72 1032.4
20260503033724 63 149 0.0 0.0 0.00 0.00 0.00 72 1032.1
20260503033221 63 149 0.0 0.0 0.00 0.00 0.00 70 1032.1
20260503032720 64 149 0.0 0.0 0.00 0.00 0.00 70 1032.2
20260503032218 64 149 0.0 0.0 0.00 0.00 0.00 69 1032.2
20260503031714 65 149 0.0 0.0 0.00 0.00 0.00 68 1032.1
20260503031213 66 149 0.0 0.0 0.00 0.00 0.00 67 1032.2
20260503030709 66 149 0.0 0.0 0.00 0.00 0.00 66 1032.1
20260503030205 67 156 0.9 0.9 0.00 0.00 0.00 63 1032.1
20260503025702 68 191 1.7 1.7 0.00 0.00 0.00 62 1032.1
20260503025200 70 358 0.0 0.0 0.00 0.00 0.00 55 1031.9
20260503024656 71 358 0.0 0.0 0.00 0.00 0.00 51 1032.0
20260503024154 72 358 0.9 2.6 0.00 0.00 0.00 50 1031.9
20260503023650 73 9 1.7 2.6 0.00 0.00 0.00 47 1031.9
20260503023147 73 7 3.5 3.5 0.00 0.00 0.00 45 1031.9
20260503022644 73 358 0.0 1.7 0.00 0.00 0.00 46 1031.8
20260503022143 74 6 0.9 3.5 0.00 0.00 0.00 45 1032.0
20260503021640 75 356 1.7 3.5 0.00 0.00 0.00 43 1031.8
20260503021137 75 0 3.5 5.2 0.00 0.00 0.00 43 1031.7
20260503020634 75 355 3.5 3.5 0.00 0.00 0.00 44 1031.9
20260503020131 75 355 3.5 6.1 0.00 0.00 0.00 43 1032.0
20260503015628 75 13 3.5 7.0 0.00 0.00 0.00 43 1031.8
20260503015125 75 11 3.5 6.1 0.00 0.00 0.00 43 1031.9
20260503014621 75 350 3.5 6.1 0.00 0.00 0.00 43 1031.9
20260503014119 75 10 4.3 7.0 0.00 0.00 0.00 43 1032.1
20260503013616 75 15 5.2 7.8 0.00 0.00 0.00 43 1031.9
20260503013114 76 352 3.5 7.0 0.00 0.00 0.00 44 1032.1
20260503012611 76 7 6.1 7.0 0.00 0.00 0.00 45 1032.0
20260503012107 76 6 2.6 6.1 0.00 0.00 0.00 47 1032.1
20260503011604 76 347 4.3 8.7 0.00 0.00 0.00 47 1032.2
20260503011101 76 2 5.2 7.0 0.00 0.00 0.00 47 1032.0
20260503010557 76 354 4.3 6.1 0.00 0.00 0.00 47 1032.0
20260503010055 76 66 3.5 6.1 0.00 0.00 0.00 47 1032.0
20260503005552 77 1 5.2 7.0 0.00 0.00 0.00 47 1032.2
20260503005049 77 357 3.5 7.0 0.00 0.00 0.00 47 1032.1
20260503004545 77 7 4.3 9.6 0.00 0.00 0.00 47 1032.2
20260503004044 77 359 3.5 7.0 0.00 0.00 0.00 47 1032.0
20260503003539 77 1 7.0 7.8 0.00 0.00 0.00 47 1032.3
20260503003037 77 6 3.5 6.1 0.00 0.00 0.00 47 1032.2
20260503002534 77 21 6.1 7.0 0.00 0.00 0.00 47 1031.9
20260503002031 77 355 2.6 7.8 0.00 0.00 0.00 48 1032.2
20260503001527 78 352 3.5 5.2 0.00 0.00 0.00 47 1032.2
20260503001025 78 84 0.0 3.5 0.00 0.00 0.00 47 1032.0
20260503000522 79 12 2.6 3.5 0.00 0.00 0.00 46 1032.2
20260503000019 78 8 3.5 3.5 0.00 0.00 0.00 47 1032.3
20260502235515 79 348 4.3 7.8 0.00 0.00 0.00 46 1032.3
20260502235013 79 43 0.0 3.5 0.00 0.00 0.00 46 1032.2
20260502234509 79 53 0.9 6.1 0.00 0.00 0.00 47 1032.1
20260502234007 80 0 5.2 7.0 0.00 0.00 0.00 46 1032.2
20260502233507 80 81 0.9 5.2 0.00 0.00 0.00 45 1032.5
20260502233004 79 3 0.9 3.5 0.00 0.00 0.00 46 1032.6
20260502232500 81 64 1.7 3.5 0.00 0.00 0.00 43 1032.4
20260502231957 80 216 3.5 7.0 0.00 0.00 0.00 45 1032.5
20260502231454 80 164 1.7 5.2 0.00 0.00 0.00 43 1032.3
20260502230952 79 351 4.3 5.2 0.00 0.00 0.00 43 1032.5
20260502230450 81 345 0.9 3.5 0.00 0.00 0.00 44 1032.5
20260502225948 80 341 4.3 6.1 0.00 0.00 0.00 42 1033.0
20260502225444 80 10 2.6 7.0 0.00 0.00 0.00 44 1032.7
20260502224941 80 355 5.2 9.6 0.00 0.00 0.00 43 1032.7
20260502224437 82 179 1.7 7.0 0.00 0.00 0.00 41 1032.8
20260502223934 79 79 0.9 1.7 0.00 0.00 0.00 41 1032.8
20260502223432 81 347 3.5 5.2 0.00 0.00 0.00 42 1032.8
20260502222930 80 348 5.2 7.8 0.00 0.00 0.00 42 1032.8
20260502222427 80 39 0.0 3.5 0.00 0.00 0.00 37 1032.8
20260502221922 80 23 5.2 6.1 0.00 0.00 0.00 38 1033.0
20260502221419 80 326 1.7 5.2 0.00 0.00 0.00 39 1033.1
20260502220916 80 2 4.3 7.8 0.00 0.00 0.00 39 1033.2
20260502220412 80 346 1.7 6.1 0.00 0.00 0.00 38 1033.2
20260502215909 81 334 3.5 5.2 0.00 0.00 0.00 37 1033.3
20260502215406 80 345 1.7 6.1 0.00 0.00 0.00 38 1033.3
20260502214903 80 354 6.1 7.8 0.00 0.00 0.00 39 1033.3
20260502214359 80 19 3.5 3.5 0.00 0.00 0.00 38 1033.4
20260502213857 79 50 2.6 5.2 0.00 0.00 0.00 39 1033.3
20260502213354 79 348 5.2 8.7 0.00 0.00 0.00 39 1033.7
20260502212853 79 359 4.3 6.1 0.00 0.00 0.00 38 1033.8
20260502212351 79 53 1.7 5.2 0.00 0.00 0.00 39 1033.8
20260502211848 80 107 0.9 5.2 0.00 0.00 0.00 37 1033.5
20260502211343 79 12 1.7 3.5 0.00 0.00 0.00 39 1033.7
20260502210841 78 10 5.2 7.0 0.00 0.00 0.00 38 1034.0
20260502210338 79 341 3.5 5.2 0.00 0.00 0.00 39 1033.9
20260502205835 79 73 0.9 7.8 0.00 0.00 0.00 41 1033.9
20260502205331 78 305 5.2 7.8 0.00 0.00 0.00 42 1034.1
20260502204828 79 118 0.9 3.5 0.00 0.00 0.00 40 1034.0
20260502204326 78 139 0.9 3.5 0.00 0.00 0.00 43 1034.0
20260502203823 78 310 2.6 6.1 0.00 0.00 0.00 40 1034.1
20260502203320 78 17 2.6 3.5 0.00 0.00 0.00 40 1034.0
20260502202815 78 283 3.5 7.0 0.00 0.00 0.00 41 1034.1
20260502202313 79 90 3.5 9.6 0.00 0.00 0.00 40 1034.1
20260502201811 78 245 2.6 6.1 0.00 0.00 0.00 39 1034.2
20260502201306 78 59 1.7 8.7 0.00 0.00 0.00 41 1034.0
20260502200803 79 26 0.9 3.5 0.00 0.00 0.00 38 1034.0
20260502200259 79 262 2.6 5.2 0.00 0.00 0.00 39 1034.0
20260502195757 78 161 0.9 6.1 0.00 0.00 0.00 36 1034.2
20260502195254 78 27 2.6 5.2 0.00 0.00 0.00 37 1034.3
20260502194750 77 252 0.9 3.5 0.00 0.00 0.00 41 1034.2
20260502194247 78 325 6.1 11.3 0.00 0.00 0.00 38 1034.4
20260502193743 77 326 4.3 7.0 0.00 0.00 0.00 38 1034.3
20260502193241 77 8 3.5 6.1 0.00 0.00 0.00 39 1034.4
20260502192741 77 3 8.7 11.3 0.00 0.00 0.00 40 1034.1
20260502192238 76 36 2.6 5.2 0.00 0.00 0.00 43 1034.3
20260502191735 76 18 3.5 7.8 0.00 0.00 0.00 40 1034.6
20260502191233 76 326 7.8 11.3 0.00 0.00 0.00 40 1034.6
20260502190730 75 28 1.7 9.6 0.00 0.00 0.00 41 1034.6
20260502190227 75 33 3.5 8.7 0.00 0.00 0.00 39 1034.6
20260502185727 76 17 3.5 8.7 0.00 0.00 0.00 41 1034.7
20260502185224 75 21 0.0 7.0 0.00 0.00 0.00 42 1034.6
20260502184720 74 359 5.2 11.3 0.00 0.00 0.00 39 1034.8
20260502184216 74 339 2.6 8.7 0.00 0.00 0.00 40 1034.9
20260502183713 74 3 7.8 9.6 0.00 0.00 0.00 40 1035.0
20260502183209 74 6 2.6 11.3 0.00 0.00 0.00 42 1034.7
20260502182704 73 35 3.5 7.8 0.00 0.00 0.00 41 1034.8
20260502182200 73 335 7.0 9.6 0.00 0.00 0.00 41 1035.1
20260502181657 73 7 5.2 6.1 0.00 0.00 0.00 42 1035.1
20260502181156 73 329 1.7 6.1 0.00 0.00 0.00 43 1035.0
20260502180653 72 236 0.9 3.5 0.00 0.00 0.00 46 1034.9